Notices

What's New in latest Release from April 7th, 2021:

- Updated Glossary, including Speed of Maximum Gust, and Total Hourly Precipitation

- Updated national and regional climate services offices contacts and prices information

- Addition of station inventory lists for 1981-2010, 1971-2000, and 1961-1990 Normals.

If you haven't already, please take our survey and provide feedback about our website: https://eccc.sondage-survey.ca/f/LanguageSelection.aspx?s=442ca660-fcf1-47c0-95a9-59707d6fd709

Hourly Data Report for March 21, 2021

MIRAMICHI RCS
NEW BRUNSWICK
Current Station Operator: ECCC - MSC

47°00'34.000" N
65°27'54.000" W
33.00 m
8100989
71744
ACQ

Download Data

Hourly Data (March 2021)
Hourly Data Report for March 21, 2021
TIME
LST
Temp Definition
°C
Dew Point Definition
°C
Rel Hum Definition
%
Precip. Amount Definition
mm

Wind Dir Definition
10's deg

Wind Spd Definition
km/h
Visibility Definition
km
Stn Press Definition
kPa
Hmdx Definition


Wind Chill Definition


Weather Definition


00:00 0.4 -6.6 59 LegendMM 27 6   102.15     LegendNANA
01:00 -2.8 -6.6 75 LegendMM 27 5   102.21   -5 LegendNANA
02:00 -4.3 -8.2 75 LegendMM 0 1   102.24   -5 LegendNANA
03:00 -3.7 -7.1 77 LegendMM 25 5   102.26   -6 LegendNANA
04:00 -1.8 -6.7 69 LegendMM 24 7   102.30   -4 LegendNANA
05:00 -1.5 -6.6 68 LegendMM 24 7   102.33   -4 LegendNANA
06:00 -1.9 -6.6 70 LegendMM 25 8   102.37   -5 LegendNANA
07:00 -2.2 -6.5 72 LegendMM 24 8   102.39   -5 LegendNANA
08:00 0.8 -5.8 62 LegendMM 25 13   102.44     LegendNANA
09:00 3.8 -4.8 53 LegendMM 25 11   102.44     LegendNANA
10:00 6.2 -4.6 46 LegendMM 23 12   102.40     LegendNANA
11:00 8.8 -4.3 39 LegendMM 23 15   102.37     LegendNANA
12:00 11.5 -5.4 30 LegendMM 23 21   102.29     LegendNANA
13:00 13.1 -6.4 25 LegendMM 24 20   102.21     LegendNANA
14:00 13.6 -6.9 23 LegendMM 23 26   102.13     LegendNANA
15:00 14.9 -8.3 19 LegendMM 24 25   102.08     LegendNANA
16:00 15.5 -11.3 15 LegendMM 26 22   102.04     LegendNANA
17:00 15.1 -9.9 17 LegendMM 24 20   102.03     LegendNANA
18:00 12.4 -7.5 24 LegendMM 23 19   102.05     LegendNANA
19:00 10.3 -7.3 28 LegendMM 23 14   102.08     LegendNANA
20:00 9.2 -7.1 31 LegendMM 23 15   102.11     LegendNANA
21:00 7.8 -6.9 35 LegendMM 23 15   102.11     LegendNANA
22:00 7.5 -7.9 33 LegendMM 23 14   102.10     LegendNANA
23:00 5.8 -7.9 36 LegendMM 24 13   102.10     LegendNANA

Notes on Data Quality.

Legend

  • E = Estimated
  • M = Missing
  • NA = Not Available*
  • [empty] = Indicates an unobserved value
Date modified: